Content
SEND FEEDBACK

Daily
Averages
Monthly
Summary
United States of America

MAURICEVILLE, TEXAS


Home > North America > United States > Texas
Elevation: 20 feet     Latitude: 30 14N     Longitude: 093 44W

WEATHER
 
SELECT A DAY
Number of Records: 110,713;   Date Range: 8/25/05 - 9/20/14
 
SHARE

PRINT THIS DATA

[ ← Previous Day ]
WEATHER ALMANAC - MARCH 16, 2013
[ Next Day → ]
[ °C ]   °F
Weather ElementAverageHighLow
Temperature65.5 °F73.4 °F (12:55 pm)59 °F (4:55 am)
Dewpoint60 °F60.8 °F (12:35 am)59 °F (1:55 am)
Humidity83.9 %100 % (12:35 am)61 % (12:55 pm)
Barometer30.00 in30.10 in (12:35 am)29.93 in (5:35 pm)
Wind Speed9.2 mph19.6 mph (11:55 am)
Wind Gust27.6 mph (12:35 pm)
Weather ElementAverage
Visibility10 mi
Wind DirectionSSE (147 °)

Weather ElementTotal
Precipitation---
Cooling Degree Days1.2 (Base 65)
Growing Degree Days16.2 (Base 50)
Averaged from 70 records on March 16, 2013
WEATHER CONDITIONS BREAKOUT
WIND DIRECTION BREAKOUT
WEATHER BY HOUR - MARCH 16, 2013
[ °C ]   °F
Local TimeTemperatureDewpointHumidityBarometerVisibilityWind DirectionWind SpeedGust SpeedPrecipitationEventsConditions
12:35 AM60.8 °F60.8 °F100 %30.10 in10.0 miSouth (170°)8.1 mphClear
12:55 AM60.8 °F60.8 °F100 %30.09 in10.0 miSouth (170°)8.1 mphClear
1:15 AM60.8 °F60.8 °F100 %30.08 in10.0 miSouth (170°)6.9 mphClear
1:35 AM60.8 °F60.8 °F100 %30.08 in10.0 miSouth (170°)6.9 mphClear
1:55 AM60.8 °F59.0 °F94 %30.07 in10.0 miSouth (180°)5.8 mphClear
2:15 AM60.8 °F59.0 °F94 %30.06 in10.0 miSouth (170°)6.9 mphClear
2:35 AM60.8 °F59.0 °F94 %30.06 in10.0 miSouth (180°)9.2 mphClear
2:55 AM60.8 °F59.0 °F94 %30.05 in10.0 miSouth (180°)6.9 mphClear
3:15 AM60.8 °F59.0 °F94 %30.05 in10.0 miSouth (180°)8.1 mphClear
3:35 AM60.8 °F59.0 °F94 %30.04 in10.0 miSouth (180°)6.9 mphClear
3:55 AM60.8 °F59.0 °F94 %30.03 in10.0 miSouth (180°)6.9 mphClear
4:15 AM60.8 °F59.0 °F94 %30.03 in10.0 miSouth (180°)6.9 mphClear
4:35 AM60.8 °F59.0 °F94 %30.03 in10.0 miSouth (180°)6.9 mphClear
4:55 AM59.0 °F59.0 °F100 %30.02 in10.0 miSouth (190°)4.6 mphClear
5:35 AM59.0 °F59.0 °F100 %30.02 in10.0 miSouth (180°)5.8 mphScattered Clouds
5:55 AM59.0 °F59.0 °F100 %30.02 in10.0 miSouth (190°)5.8 mphScattered Clouds
6:15 AM59.0 °F59.0 °F100 %30.02 in10.0 miSouth (170°)5.8 mphMostly Cloudy
6:35 AM59.0 °F59.0 °F100 %30.03 in10.0 miSouth (190°)4.6 mphScattered Clouds
6:55 AM59.0 °F59.0 °F100 %30.03 in10.0 miSouth (180°)5.8 mphMostly Cloudy
7:15 AM59.0 °F59.0 °F100 %30.03 in10.0 miCalmOvercast
7:35 AM59.0 °F59.0 °F100 %30.03 in10.0 miSouth (180°)4.6 mphMostly Cloudy
7:55 AM59.0 °F59.0 °F100 %30.04 in10.0 miSouth (190°)3.5 mphMostly Cloudy
8:15 AM60.8 °F60.8 °F100 %30.03 in10.0 miSouth (180°)4.6 mphScattered Clouds
8:35 AM62.6 °F60.8 °F94 %30.03 in10.0 miSouth (180°)6.9 mphScattered Clouds
8:55 AM64.4 °F60.8 °F88 %30.03 in10.0 miSouth (170°)10.4 mphScattered Clouds
9:15 AM64.4 °F60.8 °F88 %30.04 in10.0 miSouth (190°)8.1 mphScattered Clouds
9:35 AM66.2 °F60.8 °F83 %30.04 in10.0 miSouth (190°)10.4 mphScattered Clouds
9:55 AM68.0 °F60.8 °F78 %30.04 in10.0 miSouth (180°)8.1 mph16.1 mphClear
10:15 AM68.0 °F60.8 °F78 %30.05 in10.0 miSouth (170°)10.4 mphClear
10:35 AM69.8 °F60.8 °F73 %30.05 in10.0 miSouth (190°)13.8 mph17.3 mphClear
10:55 AM69.8 °F60.8 °F73 %30.05 in10.0 miSouth (170°)16.1 mph21.9 mphClear
11:15 AM69.8 °F59.0 °F68 %30.05 in10.0 miSSE (160°)17.3 mph24.2 mphClear
11:35 AM71.6 °F59.0 °F64 %30.05 in10.0 miSouth (180°)15.0 mph23.0 mphClear
11:55 AM71.6 °F59.0 °F64 %30.05 in10.0 miSouth (170°)19.6 mph24.2 mphClear
12:15 PM71.6 °F59.0 °F64 %30.05 in10.0 miSouth (180°)17.3 mph23.0 mphScattered Clouds
12:35 PM71.6 °F59.0 °F64 %30.04 in10.0 miSouth (190°)19.6 mph27.6 mphScattered Clouds
12:55 PM73.4 °F59.0 °F61 %30.03 in10.0 miSouth (180°)17.3 mph25.3 mphClear
1:15 PM73.4 °F59.0 °F61 %30.02 in10.0 miSouth (180°)17.3 mph25.3 mphClear
1:35 PM73.4 °F59.0 °F61 %30.01 in10.0 miSouth (180°)16.1 mph21.9 mphClear
1:55 PM73.4 °F59.0 °F61 %30.00 in10.0 miSouth (170°)16.1 mph24.2 mphClear
2:15 PM73.4 °F60.8 °F65 %29.99 in10.0 miSSE (160°)13.8 mph23.0 mphClear
2:35 PM73.4 °F60.8 °F65 %29.98 in10.0 miSouth (170°)15.0 mphClear
2:55 PM73.4 °F60.8 °F65 %29.98 in10.0 miSSE (160°)16.1 mph24.2 mphClear
3:15 PM73.4 °F59.0 °F61 %29.96 in10.0 miSSE (160°)16.1 mph20.7 mphClear
3:35 PM73.4 °F60.8 °F65 %29.96 in10.0 miSouth (170°)16.1 mph24.2 mphClear
3:55 PM71.6 °F60.8 °F69 %29.95 in10.0 miSouth (180°)17.3 mph20.7 mphClear
4:15 PM71.6 °F60.8 °F69 %29.95 in10.0 miSouth (170°)17.3 mph24.2 mphClear
4:35 PM71.6 °F60.8 °F69 %29.94 in10.0 miSouth (170°)15.0 mphClear
4:55 PM71.6 °F60.8 °F69 %29.94 in10.0 miSouth (170°)13.8 mph19.6 mphScattered Clouds
5:15 PM69.8 °F60.8 °F73 %29.94 in10.0 miSouth (170°)15.0 mph19.6 mphScattered Clouds
5:35 PM69.8 °F60.8 °F73 %29.93 in10.0 miSouth (170°)18.4 mph23.0 mphMostly Cloudy
5:55 PM69.8 °F60.8 °F73 %29.93 in10.0 miSSE (160°)16.1 mph19.6 mphOvercast
6:15 PM68.0 °F59.0 °F73 %29.93 in10.0 miSouth (170°)11.5 mphMostly Cloudy
6:35 PM68.0 °F59.0 °F73 %29.94 in10.0 miSouth (170°)12.7 mph16.1 mphOvercast
6:55 PM68.0 °F59.0 °F73 %29.93 in10.0 miSouth (170°)10.4 mphOvercast
7:15 PM66.2 °F60.8 °F83 %29.93 in10.0 miSSE (160°)10.4 mphScattered Clouds
7:35 PM66.2 °F60.8 °F83 %29.94 in10.0 miSSE (160°)9.2 mphClear
7:55 PM64.4 °F60.8 °F88 %29.94 in10.0 miSSE (160°)6.9 mphClear
8:15 PM64.4 °F60.8 °F88 %29.94 in10.0 miSSE (160°)8.1 mphClear
8:35 PM64.4 °F60.8 °F88 %29.95 in10.0 miSSE (160°)8.1 mphClear
8:55 PM62.6 °F60.8 °F94 %29.95 in10.0 miCalmClear
9:15 PM62.6 °F60.8 °F94 %29.95 in10.0 miCalmScattered Clouds
9:35 PM62.6 °F60.8 °F94 %29.95 in10.0 miCalmScattered Clouds
9:55 PM62.6 °F60.8 °F94 %29.95 in10.0 miCalmClear
10:15 PM62.6 °F60.8 °F94 %29.94 in10.0 miCalmClear
10:35 PM62.6 °F60.8 °F94 %29.94 in10.0 miCalmClear
10:55 PM62.6 °F60.8 °F94 %29.94 in10.0 miCalmClear
11:15 PM62.6 °F60.8 °F94 %29.95 in10.0 miCalmClear
11:35 PM62.6 °F60.8 °F94 %29.94 in10.0 miCalmClear
11:55 PM62.6 °F60.8 °F94 %29.94 in10.0 miCalmClear
Hourly data recorded from KORG, located miles away from Mauriceville, Texas







STORIES FROM OUR PARTNERS